sat.trackr.live / text

‹ back to catalog

STARLINK-30529

NORAD 58047 · 2023-156V

PAYLOAD ACTIVE UNKNOWN

§ Identity

Operator
Country
US
Launch date
2023-10-09
Launch site
AFWTR
Launch vehicle
Mass (kg)
RCS (m²)

Purposes: comms

External: N2YO · Heavens-Above · Gunter

§ Orbital elements

Epoch: 2026-09-20T22:44:46.998816Z

Period
93.85 min
Inclination
53.1635°
Eccentricity
0.0001430
Mean motion
15.34379193 rev/d
Perigee alt
461.8 km
Apogee alt
463.7 km
Semi-major
6,840.9 km
B*
-3.5190e-4
RAAN
339.3826°
Arg perigee
92.4076°
Mean anomaly
267.7090°
Rev number
16,490

§ Raw data

STARLINK-305291 58047U 23156V   26263.94776619 -.00012239  00000+0 -35190-3 0  99982 58047  53.1635 339.3826 0001430  92.4076 267.7090 15.34379193164905

JSON: /api/v1/satellites/58047 · /tle

For live sub-satellite position, see the globe view (requires WebGL).

§ Visibility from observer

Set your observer location to see the next 7 days of passes ≥ 10°. The values pass through the URL so the page stays shareable.

No JS? Fill the form by hand. The geolocation button needs JavaScript.